Location: Tr�vern
(48.0333°N, 4.6000°W)
Time: 02:45:46
(UTC+00:00)

SL-16 R/B - Pass Details

Date: 14 July 2020
Orbit: 985 x 1006 km, 99.5° (Epoch: 04 August)

Event Time Altitude Azimuth Distance (km) Brightness Sun altitude
Exits shadow 01:57:01 20° 168° (SSE) 2,147 3.8 -17.3°
Maximum altitude 02:01:35 82° 254° (WSW) 1,020 2.5 -17.0°
Drops below altitude 10° 02:07:54 10° 343° (NNW) 2,793 5.6 -16.6°
Sets 02:10:24 0° 344° (NNW) 3,748 6.3 -16.4°
